When you browse on this site, cookies collect data to enhance your experience and personalize the content and advertising you see.
Visit our Privacy Policy to learn more. By continuing to use the site, you agree to this use of cookies and data.
  • In Czech Republic
  • List of Countries
  • For 7 days
  • Water Temperature
  • Satellite Maps
  • Weather Map
  • Weather Widgets
  • user-avatar
    Login

    Hourly Weather Zemlyanica

    Today, 20 May, Monday

    Time Temperature Precipitation Wind Pressure Humidity
    00:00 +16°C° 0 mm 3 mps 748 mmHg 86%
    01:00 +16°C° 0 mm 3 mps 748 mmHg 86%
    02:00 +14°C° 0 mm 3 mps 748 mmHg 87%
    03:00 +14°C° 0 mm 3 mps 748 mmHg 87%
    04:00 +14°C° 0 mm 4 mps 748 mmHg 86%
    05:00 +14°C° 0 mm 4 mps 748 mmHg 86%
    06:00 +17°C° 0 mm 4 mps 748 mmHg 79%
    07:00 +19°C° 0 mm 5 mps 748 mmHg 72%
    08:00 +20°C° 0 mm 5 mps 749 mmHg 65%
    09:00 +21°C° 0 mm 6 mps 749 mmHg 61%
    10:00 +23°C° 0 mm 6 mps 749 mmHg 58%
    11:00 +24°C° 0 mm 6 mps 749 mmHg 54%
    12:00 +24°C° 0 mm 6 mps 749 mmHg 53%
    13:00 +26°C° 0 mm 6 mps 748 mmHg 51%
    14:00 +26°C° 0 mm 6 mps 748 mmHg 49%
    15:00 +26°C° 0 mm 6 mps 748 mmHg 51%
    16:00 +24°C° 0 mm 6 mps 748 mmHg 53%
    17:00 +25°C° 0 mm 5 mps 747 mmHg 55%
    18:00 +22°C° 0 mm 5 mps 747 mmHg 59%
    19:00 +21°C° 0 mm 5 mps 747 mmHg 63%
    20:00 +19°C° 0 mm 4 mps 747 mmHg 67%
    21:00 +19°C° 0 mm 5 mps 747 mmHg 68%
    22:00 +17°C° 0 mm 5 mps 747 mmHg 68%
    23:00 +17°C° 0 mm 5 mps 747 mmHg 69%

    Tomorrow, 21 May, Tuesday

    Time Temperature Precipitation Wind Pressure Humidity
    00:00 +16°C° 0 mm 5 mps 747 mmHg 69%
    01:00 +16°C° 0 mm 5 mps 747 mmHg 69%
    02:00 +16°C° 0 mm 5 mps 747 mmHg 69%
    03:00 +15°C° 0 mm 5 mps 747 mmHg 70%
    04:00 +15°C° 0 mm 5 mps 747 mmHg 71%
    05:00 +15°C° 0 mm 5 mps 747 mmHg 72%
    06:00 +16°C° 0 mm 5 mps 747 mmHg 70%
    07:00 +17°C° 0 mm 6 mps 747 mmHg 68%
    08:00 +19°C° 0 mm 6 mps 747 mmHg 65%
    09:00 +20°C° 0 mm 6 mps 747 mmHg 62%
    10:00 +22°C° 0 mm 7 mps 747 mmHg 58%
    11:00 +23°C° 0 mm 7 mps 747 mmHg 54%
    12:00 +24°C° 0.1 mm 7 mps 746 mmHg 55%
    13:00 +24°C° 0.1 mm 7 mps 746 mmHg 56%
    14:00 +24°C° 0.1 mm 7 mps 746 mmHg 57%
    15:00 +23°C° 1 mm 6 mps 745 mmHg 64%
    16:00 +22°C° 1 mm 6 mps 745 mmHg 72%
    17:00 +21°C° 1 mm 5 mps 745 mmHg 80%
    18:00 +20°C° 0.1 mm 5 mps 745 mmHg 83%
    19:00 +18°C° 0.1 mm 4 mps 745 mmHg 86%
    20:00 +17°C° 0.1 mm 4 mps 744 mmHg 89%
    21:00 +17°C° 0 mm 3 mps 744 mmHg 91%
    22:00 +16°C° 0 mm 3 mps 744 mmHg 92%
    23:00 +14°C° 0 mm 3 mps 744 mmHg 94%

    Day after tomorrow, 22 May, Wednesday

    Time Temperature Precipitation Wind Pressure Humidity
    00:00 +14°C° 0 mm 3 mps 744 mmHg 94%
    01:00 +14°C° 0 mm 3 mps 744 mmHg 95%
    02:00 +13°C° 0 mm 3 mps 744 mmHg 96%
    03:00 +14°C° 0 mm 2 mps 744 mmHg 97%
    04:00 +14°C° 0 mm 2 mps 744 mmHg 97%
    05:00 +14°C° 0 mm 2 mps 743 mmHg 98%
    06:00 +15°C° 0 mm 2 mps 744 mmHg 93%
    07:00 +17°C° 0 mm 2 mps 744 mmHg 87%
    08:00 +19°C° 0 mm 2 mps 744 mmHg 82%
    09:00 +21°C° 0 mm 2 mps 744 mmHg 73%
    10:00 +23°C° 0 mm 2 mps 744 mmHg 64%
    11:00 +25°C° 0 mm 2 mps 744 mmHg 55%
    12:00 +26°C° 0.1 mm 2 mps 743 mmHg 53%
    13:00 +26°C° 0.1 mm 2 mps 743 mmHg 51%
    14:00 +26°C° 0.1 mm 3 mps 743 mmHg 49%
    15:00 +26°C° 0 mm 2 mps 743 mmHg 51%
    16:00 +26°C° 0 mm 2 mps 742 mmHg 52%
    17:00 +26°C° 0 mm 2 mps 742 mmHg 53%
    18:00 +24°C° 0 mm 2 mps 742 mmHg 60%
    19:00 +21°C° 0 mm 2 mps 742 mmHg 68%
    20:00 +19°C° 0 mm 2 mps 742 mmHg 75%
    21:00 +19°C° 0 mm 1 mps 742 mmHg 78%
    22:00 +18°C° 0 mm 1 mps 742 mmHg 82%
    23:00 +16°C° 0 mm 1 mps 742 mmHg 86%

    23 May, Thursday

    Time Temperature Precipitation Wind Pressure Humidity
    00:00 +15°C° 0 mm 1 mps 742 mmHg 87%
    01:00 +15°C° 0 mm 1 mps 742 mmHg 89%
    02:00 +15°C° 0 mm 1 mps 742 mmHg 90%
    03:00 +15°C° 0 mm 1 mps 742 mmHg 90%
    04:00 +15°C° 0 mm 1 mps 742 mmHg 89%
    05:00 +15°C° 0 mm 1 mps 742 mmHg 88%
    06:00 +18°C° 0 mm 1 mps 742 mmHg 82%
    07:00 +20°C° 0 mm 1 mps 742 mmHg 75%
    08:00 +22°C° 0 mm 1 mps 742 mmHg 68%
    09:00 +23°C° 0 mm 1 mps 742 mmHg 62%
    10:00 +24°C° 0 mm 2 mps 742 mmHg 57%
    11:00 +25°C° 0 mm 2 mps 742 mmHg 51%
    12:00 +26°C° 0 mm 2 mps 742 mmHg 49%
    13:00 +26°C° 0 mm 2 mps 742 mmHg 47%
    14:00 +27°C° 0 mm 2 mps 742 mmHg 45%
    15:00 +26°C° 0 mm 2 mps 742 mmHg 47%
    16:00 +26°C° 0 mm 2 mps 741 mmHg 49%
    17:00 +26°C° 0 mm 1 mps 741 mmHg 52%
    18:00 +24°C° 0 mm 1 mps 741 mmHg 59%
    19:00 +22°C° 0 mm 1 mps 741 mmHg 66%
    20:00 +20°C° 0 mm 1 mps 741 mmHg 73%
    21:00 +19°C° 0 mm 1 mps 741 mmHg 78%
    22:00 +18°C° 0 mm 1 mps 741 mmHg 84%
    23:00 +16°C° 0 mm 2 mps 741 mmHg 89%

    24 May, Friday

    Time Temperature Precipitation Wind Pressure Humidity
    00:00 +16°C° 0.3 mm 1 mps 741 mmHg 90%
    01:00 +15°C° 0.3 mm 1 mps 741 mmHg 91%
    02:00 +14°C° 0.3 mm 0 mps 741 mmHg 92%
    03:00 +14°C° 0 mm 0 mps 741 mmHg 92%
    04:00 +14°C° 0 mm 0 mps 741 mmHg 91%
    05:00 +15°C° 0 mm 1 mps 741 mmHg 91%
    06:00 +18°C° 0 mm 1 mps 741 mmHg 86%
    07:00 +19°C° 0 mm 1 mps 741 mmHg 80%
    08:00 +21°C° 0 mm 1 mps 741 mmHg 75%
    09:00 +22°C° 0.3 mm 1 mps 741 mmHg 69%
    10:00 +23°C° 0.3 mm 1 mps 741 mmHg 64%
    11:00 +24°C° 0.3 mm 1 mps 741 mmHg 58%
    12:00 +24°C° 0.5 mm 2 mps 740 mmHg 60%
    13:00 +24°C° 0.5 mm 2 mps 740 mmHg 62%
    14:00 +24°C° 0.5 mm 2 mps 740 mmHg 65%
    15:00 +24°C° 0.4 mm 2 mps 740 mmHg 66%
    16:00 +23°C° 0.4 mm 2 mps 740 mmHg 67%
    17:00 +23°C° 0.4 mm 2 mps 740 mmHg 69%
    18:00 +21°C° 0.6 mm 2 mps 740 mmHg 76%
    19:00 +19°C° 0.6 mm 2 mps 740 mmHg 83%
    20:00 +19°C° 0.6 mm 1 mps 740 mmHg 91%
    21:00 +17°C° 0.3 mm 2 mps 739 mmHg 93%
    22:00 +16°C° 0.3 mm 2 mps 739 mmHg 94%
    23:00 +15°C° 0.3 mm 2 mps 739 mmHg 96%

    25 May, Saturday

    Time Temperature Precipitation Wind Pressure Humidity
    00:00 +15°C° 0 mm 2 mps 739 mmHg 97%
    01:00 +15°C° 0 mm 2 mps 739 mmHg 97%
    02:00 +14°C° 0 mm 2 mps 739 mmHg 98%
    03:00 +14°C° 0 mm 2 mps 739 mmHg 98%
    04:00 +13°C° 0 mm 3 mps 739 mmHg 98%
    05:00 +14°C° 0 mm 3 mps 740 mmHg 97%
    06:00 +14°C° 0.1 mm 3 mps 740 mmHg 96%
    07:00 +14°C° 0.1 mm 3 mps 740 mmHg 94%
    08:00 +16°C° 0.1 mm 3 mps 740 mmHg 92%
    09:00 +16°C° 0 mm 3 mps 740 mmHg 90%
    10:00 +17°C° 0 mm 3 mps 740 mmHg 88%
    11:00 +17°C° 0 mm 3 mps 740 mmHg 86%
    12:00 +18°C° 0 mm 4 mps 740 mmHg 81%
    13:00 +19°C° 0 mm 4 mps 740 mmHg 76%
    14:00 +20°C° 0 mm 4 mps 740 mmHg 71%
    15:00 +20°C° 0 mm 4 mps 740 mmHg 69%
    16:00 +21°C° 0 mm 4 mps 739 mmHg 68%
    17:00 +21°C° 0 mm 4 mps 739 mmHg 67%
    18:00 +19°C° 0 mm 4 mps 740 mmHg 72%
    19:00 +18°C° 0 mm 3 mps 740 mmHg 78%
    20:00 +17°C° 0 mm 2 mps 740 mmHg 84%
    21:00 +16°C° 0 mm 2 mps 740 mmHg 86%
    22:00 +15°C° 0 mm 2 mps 740 mmHg 89%
    23:00 +14°C° 0 mm 2 mps 740 mmHg 91%
    Show more